Location: Houston
(29.7630°N, 95.3630°W)
Time: 03:23:51
(UTC-05:00)

Amateur Radio Satellites - All Passes

Search period start: 02 October 2014 02:53
Search period end: 03 October 2014 02:53
Location: Houston, 29.7630°N, 95.3630°W

Satellite Date Start Highest point End Downlink Frequencies (MHz)
Time Altitude Azimuth
Oscar 16 02 Oct 03:10:53 03:15:57 61° 285° (WNW) 03:20:58 437.025 USB, Beacon 2401.1428
AO-Echo 02 Oct 03:12:19 03:17:23 65° 101° (ESE) 03:22:34 ?
AO-27 02 Oct 03:22:09 03:27:21 65° 102° (ESE) 03:32:31 436.795 MHz FM
RS-15 02 Oct 03:43:36 03:54:07 48° 304° (NW) 04:04:33 29.354 - 29.394 USB, Beacon 29.352 USB
Gurwin Techsat 1B 02 Oct 03:52:27 03:57:43 60° 101° (E) 04:02:56 435.225 FM
Oscar 19 02 Oct 04:10:35 04:13:33 16° 293° (WNW) 04:16:30 437.125 CW, 437.150 USB
SO-50 02 Oct 04:12:57 04:16:47 23° 55° (NE) 04:20:39 436.795 FM
TMSAT-1 02 Oct 04:20:24 04:25:44 84° 103° (ESE) 04:31:02 436.925 FM
ITAMSAT 1 02 Oct 04:23:21 04:27:51 30° 289° (WNW) 04:32:20 435.822 SSB
Uribyol 2 02 Oct 04:24:05 04:28:27 28° 290° (WNW) 04:32:48 436.500 FM
Uosat F 02 Oct 04:36:40 04:39:27 15° 95° (E) 04:42:14 435.120 FM
JAS-1B 02 Oct 04:45:29 04:49:20 19° 292° (WNW) 04:53:26 435.800 - 435.900 CW/SSB
AO-7 02 Oct 04:47:07 04:54:23 33° 100° (E) 05:01:36 29.400 - 29.500 MHz
KITSAT 1 02 Oct 04:48:23 04:54:22 24° 256° (WSW) 05:00:23 435.175 FM
AO-Echo 02 Oct 04:53:57 04:55:35 12° 293° (WNW) 04:57:14 ?
AO-27 02 Oct 05:04:26 05:06:14 12° 295° (WNW) 05:08:02 436.795 MHz FM
ISS 02 Oct 05:21:57 05:24:57 31° 42° (NE) 05:27:56 145.800 FM
OPAL 02 Oct 05:24:15 05:29:26 73° 74° (ENE) 05:34:38 ?
Gurwin Techsat 1B 02 Oct 05:34:47 05:37:05 13° 294° (WNW) 05:39:24 435.225 FM
MaSat-1 02 Oct 05:44:46 05:49:39 80° 291° (WNW) 05:54:24 437.345 MHz
SO-50 02 Oct 05:53:02 05:57:20 32° 249° (WSW) 06:01:39 436.795 FM
JAS-2 02 Oct 06:03:34 06:09:31 28° 97° (E) 06:15:52 435.800 - 435.900 CW/SSB, 435.910 FM
RS-15 02 Oct 06:07:54 06:10:06 11° 331° (NNW) 06:12:18 29.354 - 29.394 USB, Beacon 29.352 USB
Uosat F 02 Oct 06:13:34 06:18:22 45° 287° (WNW) 06:23:09 435.120 FM
UOSAT-12 02 Oct 06:14:44 06:18:56 31° 57° (ENE) 06:23:03 437.025 FM, 437.400 FM
Hamsat 02 Oct 06:19:46 06:22:43 19° 96° (E) 06:25:40 145.90 MHz
STRAND 1 02 Oct 06:29:34 06:33:03 19° 68° (ENE) 06:36:32 ?
AO-7 02 Oct 06:39:26 06:47:07 44° 293° (WNW) 06:54:49 29.400 - 29.500 MHz
ISS 02 Oct 06:59:24 07:01:24 15° 234° (SW) 07:03:24 145.800 FM
SO-67 02 Oct 07:43:30 07:46:06 20° 96° (E) 07:48:41 435.3500 MHz FM
JAS-2 02 Oct 07:47:55 07:54:27 46° 287° (WNW) 08:01:36 435.800 - 435.900 CW/SSB, 435.910 FM
Hamsat 02 Oct 07:55:13 07:58:35 24° 288° (WNW) 08:01:56 145.90 MHz
UOSAT-12 02 Oct 07:55:23 07:58:49 21° 251° (WSW) 08:02:12 437.025 FM, 437.400 FM
STRAND 1 02 Oct 08:07:13 08:11:54 38° 261° (W) 08:16:38 ?
Sapphire 02 Oct 09:08:05 09:13:13 46° 110° (ESE) 09:18:22 437.095 MHz 1200 baud AX-25 AFSK
SO-67 02 Oct 09:16:56 09:18:53 15° 288° (WNW) 09:20:49 435.3500 MHz FM
PCSat 02 Oct 09:33:13 09:38:36 89° 292° (WNW) 09:44:03 145.825 MHz
HO-68 02 Oct 09:39:15 09:45:46 37° 99° (E) 09:52:15 435.675 MHz FM
Oscar 11 02 Oct 10:17:06 10:20:26 22° 96° (E) 10:23:45 145.825 FM, Beacon 2401.500 USB
RS-15 02 Oct 10:40:20 10:49:23 27° 47° (NE) 10:58:39 29.354 - 29.394 USB, Beacon 29.352 USB
FUNcube-1 02 Oct 10:45:13 10:48:18 18° 95° (E) 10:51:20 145.950 - 145.970 MHz USB
UKube-1 02 Oct 10:47:01 10:51:22 69° 102° (ESE) 10:55:42 145.840 MHz, 145.915 MHz
Sapphire 02 Oct 10:53:05 10:56:49 19° 304° (NW) 11:00:34 437.095 MHz 1200 baud AX-25 AFSK
HO-68 02 Oct 11:27:00 11:33:16 34° 293° (WNW) 11:39:32 435.675 MHz FM
ZACube-1 02 Oct 11:29:32 11:34:02 67° 101° (E) 11:38:23 437.345 MHz
Oscar 11 02 Oct 11:53:07 11:56:29 23° 289° (WNW) 11:59:50 145.825 FM, Beacon 2401.500 USB
FUNcube-1 02 Oct 12:20:48 12:24:39 29° 288° (WNW) 12:28:25 145.950 - 145.970 MHz USB
RS-15 02 Oct 12:51:28 13:02:42 76° 247° (WSW) 13:14:26 29.354 - 29.394 USB, Beacon 29.352 USB
Saudisat 1A 02 Oct 13:05:48 13:09:09 22° 110° (ESE) 13:12:32 436.775 MHz
JAS-1B 02 Oct 13:32:54 13:38:58 26° 70° (ENE) 13:44:18 435.800 - 435.900 CW/SSB
Oscar 19 02 Oct 13:40:44 13:45:28 37° 72° (ENE) 13:50:12 437.125 CW, 437.150 USB
ITAMSAT 1 02 Oct 13:56:58 14:00:43 21° 69° (ENE) 14:04:30 435.822 SSB
Uribyol 2 02 Oct 13:57:15 14:01:11 23° 69° (ENE) 14:05:08 436.500 FM
AO-Echo 02 Oct 14:19:54 14:24:17 41° 73° (ENE) 14:28:41 ?
Oscar 16 02 Oct 14:21:32 14:26:43 79° 258° (WSW) 14:31:56 437.025 USB, Beacon 2401.1428
AO-27 02 Oct 14:34:22 14:39:22 53° 74° (ENE) 14:44:25 436.795 MHz FM
Saudisat 1A 02 Oct 14:44:51 14:48:32 26° 303° (WNW) 14:52:16 436.775 MHz
Gurwin Techsat 1B 02 Oct 15:07:34 15:12:42 52° 74° (ENE) 15:17:50 435.225 FM
RS-15 02 Oct 15:09:53 15:13:24 12° 261° (W) 15:16:58 29.354 - 29.394 USB, Beacon 29.352 USB
Oscar 19 02 Oct 15:21:09 15:24:49 19° 264° (W) 15:28:30 437.125 CW, 437.150 USB
JAS-1B 02 Oct 15:21:43 15:29:21 46° 258° (WSW) 15:35:49 435.800 - 435.900 CW/SSB
KITSAT 1 02 Oct 15:22:59 15:26:14 13° 101° (E) 15:29:28 435.175 FM
TMSAT-1 02 Oct 15:35:04 15:40:19 72° 76° (ENE) 15:45:35 436.925 FM
ITAMSAT 1 02 Oct 15:35:14 15:39:55 35° 261° (W) 15:44:39 435.822 SSB
Uribyol 2 02 Oct 15:35:48 15:40:24 33° 262° (W) 15:45:02 436.500 FM
AO-7 02 Oct 15:40:21 15:46:57 27° 62° (ENE) 15:53:31 29.400 - 29.500 MHz
MaSat-1 02 Oct 15:42:34 15:45:31 46° 66° (ENE) 15:48:07 437.345 MHz
Uosat F 02 Oct 15:45:55 15:47:20 11° 65° (ENE) 15:48:45 435.120 FM
Oscar 10/S400 02 Oct 15:53:10 16:12:58 59° 155° (SSE) 16:39:39 145.825 - 145.975 CW/USB, Beacon 145.810 USB
AO-Echo 02 Oct 16:00:50 16:03:11 14° 266° (W) 16:05:32 ?
AO-27 02 Oct 16:16:45 16:19:06 13° 266° (W) 16:21:28 436.795 MHz FM
Gurwin Techsat 1B 02 Oct 16:50:12 16:52:51 14° 266° (W) 16:55:31 435.225 FM
KITSAT 1 02 Oct 17:12:27 17:20:32 89° 294° (WNW) 17:28:40 435.175 FM
Uosat F 02 Oct 17:20:35 17:25:31 63° 258° (WSW) 17:30:29 435.120 FM
AO-7 02 Oct 17:31:08 17:39:11 55° 257° (WSW) 17:47:16 29.400 - 29.500 MHz
OPAL 02 Oct 17:40:52 17:45:21 32° 100° (E) 17:49:46 ?
JAS-2 02 Oct 17:55:07 17:59:52 38° 72° (ENE) 18:04:46 435.800 - 435.900 CW/SSB, 435.910 FM
Sapphire 02 Oct 18:04:42 18:06:28 12° 52° (NE) 18:08:15 437.095 MHz 1200 baud AX-25 AFSK
PANSAT 02 Oct 18:05:29 18:08:28 21° 158° (SSE) 18:11:28 not established
SO-50 02 Oct 18:22:18 18:25:58 26° 110° (ESE) 18:29:42 436.795 FM
PCSat 02 Oct 18:28:12 18:32:17 21° 57° (ENE) 18:36:20 145.825 MHz
Hamsat 02 Oct 18:41:23 18:45:43 77° 259° (WSW) 18:50:02 145.90 MHz
KITSAT 1 02 Oct 19:12:02 19:16:56 17° 312° (NW) 19:21:51 435.175 FM
OPAL 02 Oct 19:20:10 19:23:59 22° 293° (WNW) 19:27:46 ?
JAS-2 02 Oct 19:41:56 19:45:09 17° 266° (W) 19:48:26 435.800 - 435.900 CW/SSB, 435.910 FM
SO-67 02 Oct 19:42:18 19:45:42 64° 77° (ENE) 19:49:07 435.3500 MHz FM
PANSAT 02 Oct 19:44:33 19:48:20 55° 169° (S) 19:52:07 not established
Sapphire 02 Oct 19:45:02 19:50:28 80° 247° (WSW) 19:55:52 437.095 MHz 1200 baud AX-25 AFSK
SO-50 02 Oct 20:02:49 20:06:24 23° 305° (NW) 20:10:04 436.795 FM
HO-68 02 Oct 20:04:26 20:07:58 15° 60° (ENE) 20:11:31 435.675 MHz FM
PCSat 02 Oct 20:10:45 20:15:47 40° 251° (WSW) 20:20:47 145.825 MHz
UOSAT-12 02 Oct 20:19:58 20:24:09 37° 112° (ESE) 20:28:26 437.025 FM, 437.400 FM
STRAND 1 02 Oct 20:23:29 20:28:36 68° 285° (WNW) 20:33:42 ?
ISS 02 Oct 20:23:53 20:26:12 18° 127° (SE) 20:28:31 145.800 FM
PANSAT 02 Oct 21:24:34 21:28:25 73° 182° (S) 21:32:16 not established
UKube-1 02 Oct 21:37:05 21:40:43 27° 72° (ENE) 21:44:22 145.840 MHz, 145.915 MHz
HO-68 02 Oct 21:47:37 21:54:45 83° 255° (WSW) 22:01:56 435.675 MHz FM
ISS 02 Oct 21:59:49 22:02:42 27° 319° (NW) 22:05:36 145.800 FM
UOSAT-12 02 Oct 22:01:09 22:04:23 19° 307° (NW) 22:07:40 437.025 FM, 437.400 FM
ZACube-1 02 Oct 22:20:18 22:24:04 26° 72° (ENE) 22:27:53 437.345 MHz
Oscar 11 02 Oct 22:41:03 22:45:21 62° 259° (W) 22:49:41 145.825 FM, Beacon 2401.500 USB
PANSAT 02 Oct 23:04:46 23:08:27 43° 194° (SSW) 23:12:07 not established
FUNcube-1 02 Oct 23:10:02 23:14:32 77° 258° (WSW) 23:19:09 145.950 - 145.970 MHz USB
UKube-1 02 Oct 23:13:50 23:16:51 18° 264° (W) 23:19:52 145.840 MHz, 145.915 MHz
Saudisat 1A 02 Oct 23:16:28 23:20:40 42° 60° (ENE) 23:24:50 436.775 MHz
ZACube-1 02 Oct 23:56:55 00:00:21 21° 264° (W) 00:03:51 437.345 MHz
PANSAT 03 Oct 00:45:59 00:48:13 15° 205° (SSW) 00:50:26 not established
RS-15 03 Oct 00:57:41 01:06:28 28° 105° (ESE) 01:15:03 29.354 - 29.394 USB, Beacon 29.352 USB
Saudisat 1A 03 Oct 00:57:45 00:59:49 13° 252° (WSW) 01:01:53 436.775 MHz
KITSAT 1 03 Oct 01:14:32 01:19:19 16° 47° (NE) 01:24:03 435.175 FM
Oscar 19 03 Oct 01:59:07 02:02:58 21° 96° (E) 02:06:47 437.125 CW, 437.150 USB
Uribyol 2 03 Oct 02:17:18 02:19:33 13° 94° (E) 02:21:47 436.500 FM
ITAMSAT 1 03 Oct 02:17:25 02:19:10 12° 93° (E) 02:20:54 435.822 SSB
AO-Echo 03 Oct 02:33:06 02:37:13 24° 97° (E) 02:41:22 ?
Oscar 16 03 Oct 02:39:31 02:44:37 62° 101° (ESE) 02:49:40 437.025 USB, Beacon 2401.1428
